Location: Tamazert
(32.6352°N, 5.2072°W)
Time: 21:05:43
(UTC+00:00)

Transit 2A Rocket - Pass Details

Date: 11 October 2022
Orbit: 589 x 911 km, 66.7° (Epoch: 28 November)

Event Time Altitude Azimuth Distance (km) Brightness Sun altitude
Rises 11:49:47 0° 355° (N) 3,068 7.7 50.0°
Reaches altitude 10° 11:53:11 10° 21° (NNE) 2,220 7.2 50.1°
Maximum altitude 11:55:53 14° 53° (NE) 1,991 7.1 50.1°
Drops below altitude 10° 11:58:42 10° 85° (E) 2,332 7.6 50.2°
Sets 12:02:24 0° 109° (ESE) 3,333 8.5 50.2°
